2019-072A (44703 NORAD) Tracking and Keplerian Element Data

This shows tracking and keplerian element data for the satellite.

Feedback or suggestion? Click here.




ElementValue
Catalog44703
Name2019-072A
Epoch Orbit149
Epoch Day316.93058486
Epoch Year2019
RAAN29.6471
Inclination97.4947
Eccentricity0.0012839
Argument of Perigee231.5528
Mean Anonmoly243.5847
Mean Motion15.2278649
Decay Rate2.269E-05
L11 44703U 19072A 19316.93058486 .00002269 00000-0 10000-3 0 9993
L22 44703 97.4947 29.6471 0012839 231.5528 243.5847 15.22786490 1499

Live tracking and technical data element details for 2019-072A (NORAD 44703). 2019-072A can be tracked NOW for your location showing map with azimuth and elevation plus other details from your city location.

Track the satellite on the map from your city or location and see movement details for azimuth, elevation, latitude, longitude, range, height, and movement on the map or in text.







IsCatalogInMostPopularTable: catalog: 44703, numindb: 7
Update: records affected: 1



GetName: 44703 2019-072A

Hit Count: updated at: Thu, 14 Nov 2019 07:24:29 GMT